SCP
0 0 0 0 0 0 0 0 0 0 0 0 0 0 0 0 0 0 0 0 0 0
0 0 0 0 0 0 0 0 0 0 0 0 0 0 0 0 0 0 0 0 0 0
0 0 0 0 0 0 0 0 0 0 0 0 0 0 0 0 0 0 0 0 0 0
0 0 0 0 0 0 0 0 0 0 0 0 0 0 0 0 0 0 0 0 0 0
0 0 0 0 0 0 0 0 0 0 0 0 0 0 0 0 0 0 0 0 0 0
0 0 0 0 0 0 0 0 0 0 0 0 0 0 0 0 0 0 0 0 0 0
0 0 0 0 0 0 0 0 0 0 0 0 0 0 0 0 0 0 0 0 0 0
0 0 0 0 0 0 0 0 0 0 0 0 0 0 0 0 0 0 0 0 0 0
0 0 0 0 0 0 0 0 0 0 0 0 0 0 0 0 0 0 0 0 0 0
0 0 0 0 0 0 0 0 0 0 0 0 0 0 0 0 0 0 0 0 0 0
0 0 0 0 0 0 0 0 0 0 0 0 0 0 0 0 0 0 0 0 0 0
0 0 0 0 0 0 0 0 0 0 0 0 0 0 0 0 0 0 0 0 0 0
0 0 0 0 0 0 0 0 0 0 0 0 0 0 0 0 0 0 0 0 0 0
0 0 0 0 0 0 0 0 0 0 0 0 0 0 0 0 0 0 0 0 0 0
Wind_Speed_500mb
25 23 22 21 21 23 26 30 32 33 36 38 40 42 43 44 45 48 48 48 49 50
21 19 19 20 22 25 29 33 36 39 40 41 43 46 47 47 46 49 48 51 52 55
20 20 21 23 27 30 34 37 40 42 44 44 44 47 48 49 49 52 50 50 51 52
23 23 25 28 32 34 37 40 42 43 44 43 43 44 47 49 50 53 52 51 54 53
28 29 30 31 34 37 38 40 41 42 42 43 43 43 47 50 50 53 54 53 56 56
32 33 33 34 36 38 39 39 40 42 42 42 43 43 45 50 52 56 57 55 56 55
35 35 37 38 38 37 38 39 39 41 43 45 49 51 53 56 58 58 58 58 58 58
37 39 40 41 41 42 42 44 47 51 53 54 57 58 61 64 67 67 66 63 60 60
41 41 42 43 44 46 48 50 52 52 54 54 55 55 57 60 65 67 68 68 62 61
44 45 42 42 47 47 47 49 51 51 54 57 56 54 55 58 64 67 67 67 65 63
44 44 41 44 48 49 49 51 53 54 56 61 59 57 57 60 65 69 68 66 64 65
40 42 41 43 45 48 52 57 59 61 62 64 63 59 62 64 67 71 70 68 65 61
39 40 42 45 49 53 56 61 62 66 68 69 71 65 65 63 66 72 72 71 66 60
41 44 46 49 53 57 60 63 67 70 73 73 72 67 59 58 64 69 70 67 64 60
Wind_Direction_500mb
255 254 256 260 267 276 284 288 291 293 295 296 296 296 295 293 291 289 289 287 286 284
248 257 268 277 284 289 293 296 298 299 300 300 300 298 297 296 293 290 290 287 285 283
253 262 272 282 288 292 296 299 301 302 303 303 302 300 298 296 294 291 290 290 288 288
260 270 281 290 295 298 300 301 302 303 303 304 303 302 301 299 297 295 292 290 288 288
268 276 286 293 299 302 304 305 306 305 305 303 302 301 300 300 300 299 297 296 293 293
270 280 288 293 297 300 302 304 303 302 303 302 302 302 300 299 299 298 298 298 297 296
273 282 288 290 293 298 301 302 300 300 302 303 302 302 302 300 299 297 296 296 295 294
276 282 288 292 293 296 298 299 300 302 303 302 302 303 301 300 299 300 299 297 296 296
280 284 287 286 286 289 293 296 296 298 301 302 304 305 303 302 300 299 300 301 298 295
279 283 284 282 282 289 294 296 298 299 301 302 304 306 306 303 299 299 299 299 298 294
277 277 277 277 282 291 295 295 297 298 299 299 302 304 305 303 299 297 298 299 296 293
272 273 279 284 290 292 294 295 297 297 298 299 301 304 305 303 300 298 299 298 295 293
274 281 287 293 294 296 295 296 296 297 298 299 301 303 303 299 297 297 299 297 296 294
277 285 290 296 299 301 300 297 297 297 299 299 301 303 302 300 297 296 296 295 295 294
Wind_Speed_850mb
25 23 22 21 21 23 26 30 32 33 36 38 40 42 43 44 45 48 48 48 49 50
21 19 19 20 22 25 29 33 36 39 40 41 43 46 47 47 46 49 48 51 52 55
20 20 21 23 27 30 34 37 40 42 44 44 44 47 48 49 49 52 50 50 51 52
23 23 25 28 32 34 37 40 42 43 44 43 43 44 47 49 50 53 52 51 54 53
28 29 30 31 34 37 38 40 41 42 42 43 43 43 47 50 50 53 54 53 56 56
32 33 33 34 36 38 39 39 40 42 42 42 43 43 45 50 52 56 57 55 56 55
35 35 37 38 38 37 38 39 39 41 43 45 49 51 53 56 58 58 58 58 58 58
37 39 40 41 41 42 42 44 47 51 53 54 57 58 61 64 67 67 66 63 60 60
41 41 42 43 44 46 48 50 52 52 54 54 55 55 57 60 65 67 68 68 62 61
44 45 42 42 47 47 47 49 51 51 54 57 56 54 55 58 64 67 67 67 65 63
44 44 41 44 48 49 49 51 53 54 56 61 59 57 57 60 65 69 68 66 64 65
40 42 41 43 45 48 52 57 59 61 62 64 63 59 62 64 67 71 70 68 65 61
39 40 42 45 49 53 56 61 62 66 68 69 71 65 65 63 66 72 72 71 66 60
41 44 46 49 53 57 60 63 67 70 73 73 72 67 59 58 64 69 70 67 64 60
Wind_Direction_850mb
255 254 256 260 267 276 284 288 291 293 295 296 296 296 295 293 291 289 289 287 286 284
248 257 268 277 284 289 293 296 298 299 300 300 300 298 297 296 293 290 290 287 285 283
253 262 272 282 288 292 296 299 301 302 303 303 302 300 298 296 294 291 290 290 288 288
260 270 281 290 295 298 300 301 302 303 303 304 303 302 301 299 297 295 292 290 288 288
268 276 286 293 299 302 304 305 306 305 305 303 302 301 300 300 300 299 297 296 293 293
270 280 288 293 297 300 302 304 303 302 303 302 302 302 300 299 299 298 298 298 297 296
273 282 288 290 293 298 301 302 300 300 302 303 302 302 302 300 299 297 296 296 295 294
276 282 288 292 293 296 298 299 300 302 303 302 302 303 301 300 299 300 299 297 296 296
280 284 287 286 286 289 293 296 296 298 301 302 304 305 303 302 300 299 300 301 298 295
279 283 284 282 282 289 294 296 298 299 301 302 304 306 306 303 299 299 299 299 298 294
277 277 277 277 282 291 295 295 297 298 299 299 302 304 305 303 299 297 298 299 296 293
272 273 279 284 290 292 294 295 297 297 298 299 301 304 305 303 300 298 299 298 295 293
274 281 287 293 294 296 295 296 296 297 298 299 301 303 303 299 297 297 299 297 296 294
277 285 290 296 299 301 300 297 297 297 299 299 301 303 302 300 297 296 296 295 295 294